Overview Statistics Trail Chart Weather Telemetry Raw packets
 

This is the latest recevied weather packets stored in our database for station/object WA6OOO. If no packets are shown the sender has not sent any weather packets the latest 10 day(s).

<< 44 45 46 47 48 49 50 >>
Time Temp. Humidity Pressure Rain* Wind** Luminosity Snow
1788380527 24.44° C 62% 1019.3 hPa 0 mm - 712 W/m² -
1788380223 24.44° C 61% 1019.2 hPa 0 mm - 711 W/m² -
1788379922 25° C 59% 1019.5 hPa 0 mm - 711 W/m² -
1788379617 24.44° C 58% 1019.5 hPa 0 mm - 710 W/m² -
1788379313 24.44° C 63% 1019.6 hPa 0 mm - 709 W/m² -
1788379008 24.44° C 57% 1019.6 hPa 0 mm - 709 W/m² -
1788378708 23.89° C 57% 1019.4 hPa 0 mm - 709 W/m² -
1788378407 23.89° C 60% 1019.8 hPa 0 mm - 709 W/m² -
1788378102 23.89° C 58% 1019.6 hPa 0 mm - 710 W/m² -
1788377798 24.44° C 59% 1019.9 hPa 0 mm - 706 W/m² -
1788377498 23.89° C 60% 1019.9 hPa 0 mm - 704 W/m² -
1788377197 24.44° C 60% 1019.8 hPa 0 mm - 703 W/m² -
1788376891 23.89° C 58% 1020 hPa 0 mm - 700 W/m² -
1788376586 24.44° C 59% 1019.9 hPa 0 mm - 698 W/m² -
1788376285 23.89° C 60% 1019.8 hPa 0 mm - 693 W/m² -
1788375981 24.44° C 57% 1020 hPa 0 mm - 686 W/m² -
1788375676 24.44° C 58% 1020.1 hPa 0 mm - 685 W/m² -
1788375372 23.89° C 59% 1019.9 hPa 0 mm - 678 W/m² -
1788375067 23.89° C 61% 1019.9 hPa 0 mm - 673 W/m² -
1788374762 23.89° C 64% 1020 hPa 0 mm - 667 W/m² -
1788374457 23.89° C 61% 1020 hPa 0 mm - 660 W/m² -
1788374154 23.89° C 61% 1019.9 hPa 0 mm - 653 W/m² -
1788373850 23.33° C 63% 1020 hPa 0 mm - 650 W/m² -
1788373546 23.33° C 63% 1020 hPa 0 mm - 641 W/m² -
1788373242 23.89° C 61% 1019.9 hPa 0 mm - 635 W/m² -

* Rain latest hour (hover to see other rain measurements)
** Current wind speed in m/s (hover to see current wind gust speed)